Flag for United Kingdom Weather past 2 weeks in Newport (Isle of Wight), England, United Kingdom

Now
76 °F

Mild.


Feels Like: 78 °F
Forecast: 59 / 78 °F
Wind: 7 mph from West

Location: Solent M. R. S. C.

Current Time: Jul 25, 2014 at 8:20:26 PM

Latest Report: Jul 25, 2014 at 7:00 PM


Visibility: N/A

Pressure: 30.00 "Hg

Humidity: 61%

Dew point: 62 °F

Location of Newport (Isle of Wight)Location

Historic Weather in Newport (Isle of Wight) — Graph

°F

Newport (Isle of Wight) temperature yesterday

Maximum temperature yesterday: 85 °F (at 2:00 PM)
Minimum temperature yesterday: 66 °F (at 6:00 AM)
Average temperature yesterday: 74 °F

Past Weeks' High & Low Weather Summary

 TemperatureHumidityPressure
High85 °F (Jul 24, 2:00 PM)95% (Jul 15, 3:00 AM)30.21 "Hg (Jul 15, 3:00 AM)
Low55 °F (Jul 14, 6:00 AM)32% (Jul 22, 4:00 PM)29.73 "Hg (Jul 19, 6:00 PM)
Average69 °F72%30.00 "Hg
* Reported Jul 10 7:00 PM — Jul 25 7:00 PM, Newport (Isle of Wight), Weather by CustomWeather, © 2014

Note: Actual official high and low records may vary slightly from our data, if they occured in-between our weather recording intervals... More about our weather records

Advertising

Newport (Isle of Wight) weather history for previous 24 hours

 ConditionsComfort  
Time TempWeatherWind HumidityBarometerVisibility
7:00 PM
Jul 25
76 °FMild.7 mph61%30.00 "HgN/A
6:00 PM74 °FMild.6 mph62%29.99 "HgN/A
5:00 PM74 °FMild.10 mph51%30.01 "HgN/A
4:00 PM78 °FWarm.8 mph53%30.01 "HgN/A
3:00 PM78 °FWarm.15 mph55%29.99 "HgN/A
2:00 PM83 °FPleasantly warm.7 mph37%29.99 "HgN/A
1:00 PM81 °FWarm.13 mph42%30.01 "HgN/A
12:00 PM80 °FWarm.13 mph48%30.02 "HgN/A
11:00 AM78 °FWarm.12 mph54%30.02 "HgN/A
10:00 AM70 °FMild.10 mph72%30.03 "HgN/A
9:00 AM67 °FMild.9 mph77%30.03 "HgN/A
8:00 AM64 °FMild.7 mph84%30.02 "HgN/A
7:00 AM63 °FMild.9 mph83%30.01 "HgN/A
6:00 AM62 °FMild.10 mph81%30.00 "HgN/A
5:00 AM63 °FMild.13 mph75%30.00 "HgN/A
4:00 AM63 °FMild.13 mph74%30.00 "HgN/A
3:00 AM64 °FMild.12 mph72%30.01 "HgN/A
2:00 AM65 °FMild.10 mph68%30.02 "HgN/A
1:00 AM66 °FMild.8 mph61%30.03 "HgN/A
12:00 AM69 °FMild.7 mph51%30.03 "HgN/A
11:00 PM
Jul 24
72 °FMild.9 mph47%30.03 "HgN/A
10:00 PM74 °FMild.9 mph40%30.02 "HgN/A
9:00 PM74 °FMild.3 mph60%30.01 "HgN/A
8:00 PM74 °FMild.7 mph62%29.99 "HgN/A
Weather by CustomWeather, © 2014

See weather overviewHow to use our weather pages